Weather History for Claxton, GA

Change the Weather History Date:

Thursday, February 27, 2014

  Actual Average (KSAV) Record (KSAV)
Temperature  
Mean Temperature 48 °F 56 °F  
Max Temperature 62 °F 67 °F 85 °F (1997)
Min Temperature 33 °F 44 °F 21 °F (1974)
Degree Days  
Heating Degree Days 18 10  
Month to date heating degree days 333  
Since 1 July heating degree days 1507  
Cooling Degree Days 0 0  
Month to date cooling degree days 0  
Year to date cooling degree days 3  
Moisture  
Dew Point 35 °F    
Average Humidity 72    
Maximum Humidity 100    
Minimum Humidity 31    
Precipitation  
Precipitation 0.00 in 0.10 in 2.15 in (1893)
Month to date precipitation 2.69  
Year to date precipitation 6.38  
Sea Level Pressure  
Sea Level Pressure 29.92 in    
Wind  
Wind Speed 5 mph (WNW)    
Max Wind Speed 12 mph    
Max Gust Speed 21 mph    
Visibility 10 miles    
Events      
T = Trace of Precipitation, MM = Missing Value Source: NWS Daily Summary

Daily Weather History Graph

Daily Weather History Graph

Search for Another Location

Airport:

Trip Planner

Search our weather history database for the weather conditions in past years. The results will help you decide how hot, cold, wet, or windy it might be!

Date:

Astronomy

Feb. 27, 2014 Rise Set
Actual Time 6:57 AM EST 6:23 PM EST
Civil Twilight 6:32 AM EST 6:48 PM EST
Nautical Twilight 6:04 AM EST 7:16 PM EST
Astronomical Twilight 5:35 AM EST 7:45 PM EST
Moon 5:24 AM EST (2/27) 4:50 PM EST (2/27)
Length of Visible Light 12h 15m
Length of Day
11h 26m
Waning Crescent, 4% of the Moon is Illuminated
Feb 27
Waning Crescent
Mar 1
New
Mar 8
First Quarter
Mar 16
Full
Mar 23
Last Quarter

Hourly Weather History & Observations

Time (EST) Temp. Windchill Dew Point Humidity Pressure Visibility Wind Dir Wind Speed Gust Speed Precip Events Conditions
12:15 AM 46.4 °F 44.3 °F 44.6 °F 93% 29.87 in 10.0 mi WNW 4.6 mph - N/A   Overcast
12:35 AM 46.4 °F 43.5 °F 42.8 °F 87% 29.87 in 10.0 mi WNW 5.8 mph - N/A   Overcast
12:55 AM 44.6 °F 43.1 °F 42.8 °F 93% 29.88 in 10.0 mi WNW 3.5 mph - N/A   Mostly Cloudy
1:20 AM 44.6 °F 43.1 °F 42.8 °F 93% 29.88 in 10.0 mi WNW 3.5 mph - N/A   Clear
1:35 AM 42.8 °F 40.1 °F 42.8 °F 100% 29.88 in 10.0 mi WNW 4.6 mph - N/A   Clear
1:55 AM 42.8 °F 41.1 °F 41.0 °F 93% 29.88 in 10.0 mi West 3.5 mph - N/A   Clear
2:15 AM 42.8 °F - 41.0 °F 93% 29.87 in 10.0 mi Calm Calm - N/A   Clear
2:35 AM 41.0 °F - 41.0 °F 100% 29.87 in 10.0 mi Calm Calm - N/A   Clear
2:55 AM 41.0 °F - 41.0 °F 100% 29.87 in 10.0 mi Calm Calm - N/A   Clear
3:15 AM 41.0 °F 38.0 °F 41.0 °F 100% 29.87 in 10.0 mi West 4.6 mph - N/A   Clear
3:35 AM 41.0 °F 37.1 °F 37.4 °F 87% 29.86 in 10.0 mi WNW 5.8 mph - N/A   Clear
3:55 AM 41.0 °F 39.0 °F 37.4 °F 87% 29.87 in 10.0 mi West 3.5 mph - N/A   Clear
4:15 AM 41.0 °F 38.0 °F 37.4 °F 87% 29.87 in 10.0 mi West 4.6 mph - N/A   Clear
4:35 AM 41.0 °F 37.1 °F 35.6 °F 81% 29.88 in 10.0 mi WNW 5.8 mph - N/A   Clear
4:55 AM 39.2 °F 35.0 °F 35.6 °F 87% 29.88 in 10.0 mi WNW 5.8 mph - N/A   Clear
5:15 AM 39.2 °F 34.2 °F 33.8 °F 81% 29.89 in 10.0 mi WNW 6.9 mph - N/A   Clear
5:35 AM 39.2 °F 34.2 °F 33.8 °F 81% 29.89 in 10.0 mi WNW 6.9 mph - N/A   Clear
5:55 AM 37.4 °F 31.4 °F 32.0 °F 81% 29.90 in 10.0 mi WNW 8.1 mph - N/A   Clear
6:15 AM 37.4 °F 31.4 °F 32.0 °F 81% 29.90 in 10.0 mi NW 8.1 mph - N/A   Clear
6:35 AM 37.4 °F 32.1 °F 32.0 °F 81% 29.92 in 10.0 mi WNW 6.9 mph - N/A   Clear
6:55 AM 37.4 °F 32.8 °F 32.0 °F 81% 29.92 in 10.0 mi WNW 5.8 mph - N/A   Clear
7:15 AM 35.6 °F 29.9 °F 32.0 °F 87% 29.93 in 10.0 mi WNW 6.9 mph - N/A   Clear
7:35 AM 35.6 °F 30.7 °F 32.0 °F 87% 29.93 in 10.0 mi West 5.8 mph - N/A   Clear
7:55 AM 35.6 °F 28.6 °F 30.2 °F 81% 29.94 in 10.0 mi WNW 9.2 mph - N/A   Clear
8:15 AM 37.4 °F 32.1 °F 30.2 °F 75% 29.95 in 10.0 mi WNW 6.9 mph - N/A   Clear
8:35 AM 37.4 °F 30.8 °F 28.4 °F 70% 29.96 in 10.0 mi West 9.2 mph - N/A   Clear
8:55 AM 35.6 °F 29.9 °F 28.4 °F 75% 29.97 in 10.0 mi WNW 6.9 mph - N/A   Clear
9:15 AM 39.2 °F 33.0 °F 28.4 °F 65% 29.97 in 10.0 mi WNW 9.2 mph - N/A   Clear
9:35 AM 41.0 °F 35.2 °F 28.4 °F 61% 29.97 in 10.0 mi WNW 9.2 mph - N/A   Clear
9:55 AM 42.8 °F 38.6 °F 30.2 °F 61% 29.97 in 10.0 mi NW 6.9 mph - N/A   Clear
10:15 AM 42.8 °F 39.3 °F 30.2 °F 61% 29.96 in 10.0 mi WNW 5.8 mph - N/A   Clear
10:35 AM 44.6 °F 40.2 °F 30.2 °F 57% 29.96 in 10.0 mi NW 8.1 mph - N/A   Clear
10:55 AM 44.6 °F 41.4 °F 30.2 °F 57% 29.95 in 10.0 mi WNW 5.8 mph - N/A   Clear
11:15 AM 46.4 °F 42.9 °F 32.0 °F 57% 29.96 in 10.0 mi NW 6.9 mph - N/A   Clear
11:35 AM 48.2 °F - 32.0 °F 54% 29.96 in 10.0 mi WNW 4.6 mph - N/A   Clear
11:55 AM 50.0 °F - 32.0 °F 50% 29.95 in 10.0 mi WNW 6.9 mph - N/A   Clear
12:15 PM 51.8 °F - 32.0 °F 47% 29.95 in 10.0 mi WNW 8.1 mph - N/A   Clear
12:35 PM 51.8 °F - 32.0 °F 47% 29.94 in 10.0 mi WNW 9.2 mph - N/A   Clear
12:55 PM 51.8 °F - 32.0 °F 47% 29.93 in 10.0 mi West 6.9 mph - N/A   Clear
1:15 PM 53.6 °F - 32.0 °F 44% 29.92 in 10.0 mi WNW 8.1 mph - N/A   Clear
1:35 PM 53.6 °F - 32.0 °F 44% 29.92 in 10.0 mi West 4.6 mph - N/A   Clear
1:55 PM 55.4 °F - 32.0 °F 41% 29.90 in 10.0 mi WNW 11.5 mph 20.7 mph N/A   Clear
2:20 PM 55.4 °F - 32.0 °F 41% 29.90 in 10.0 mi West 8.1 mph - N/A   Clear
2:35 PM 57.2 °F - 32.0 °F 38% 29.89 in 10.0 mi WNW 6.9 mph 16.1 mph N/A   Clear
2:55 PM 57.2 °F - 32.0 °F 38% 29.89 in 10.0 mi NNW 10.4 mph - N/A   Clear
3:15 PM 59.0 °F - 32.0 °F 36% 29.89 in 2.0 mi WNW 9.2 mph - N/A   Haze
3:35 PM 62.6 °F - 32.0 °F 32% 29.90 in 0.8 mi West 5.8 mph - N/A   Haze
3:55 PM 60.8 °F - 30.2 °F 31% 29.90 in 10.0 mi WNW 10.4 mph - N/A   Clear
4:15 PM 59.0 °F - 30.2 °F 34% 29.89 in 10.0 mi WNW 4.6 mph - N/A   Clear
4:35 PM 59.0 °F - 30.2 °F 34% 29.89 in 10.0 mi West 6.9 mph - N/A   Clear
4:55 PM 59.0 °F - 30.2 °F 34% 29.89 in 10.0 mi West 6.9 mph - N/A   Clear
5:15 PM 57.2 °F - 30.2 °F 36% 29.89 in 10.0 mi West 8.1 mph - N/A   Clear
5:35 PM 55.4 °F - 30.2 °F 38% 29.90 in 10.0 mi West 6.9 mph - N/A   Clear
5:55 PM 53.6 °F - 33.8 °F 47% 29.90 in 10.0 mi West 4.6 mph - N/A   Clear
6:15 PM 51.8 °F - 32.0 °F 47% 29.91 in 10.0 mi Calm Calm - N/A   Clear
6:35 PM 50.0 °F - 37.4 °F 62% 29.91 in 10.0 mi Calm Calm - N/A   Clear
6:55 PM 46.4 °F 45.2 °F 39.2 °F 76% 29.92 in 10.0 mi West 3.5 mph - N/A   Clear
7:15 PM 46.4 °F - 41.0 °F 81% 29.91 in 10.0 mi Calm Calm - N/A   Clear
7:35 PM 44.6 °F - 41.0 °F 87% 29.92 in 10.0 mi Calm Calm - N/A   Clear
7:55 PM 42.8 °F - 41.0 °F 93% 29.93 in 10.0 mi Calm Calm - N/A   Clear
8:15 PM 42.8 °F - 39.2 °F 87% 29.94 in 10.0 mi Calm Calm - N/A   Clear
8:35 PM 41.0 °F - 41.0 °F 100% 29.94 in 10.0 mi Calm Calm - N/A   Clear
8:55 PM 41.0 °F - 37.4 °F 87% 29.96 in 10.0 mi Calm Calm - N/A   Clear
9:15 PM 39.2 °F - 39.2 °F 100% 29.96 in 10.0 mi Calm Calm - N/A   Clear
9:35 PM 39.2 °F - 39.2 °F 100% 29.97 in 10.0 mi Calm Calm - N/A   Clear
9:55 PM 37.4 °F - 37.4 °F 100% 29.98 in 10.0 mi Calm Calm - N/A   Clear
10:15 PM 37.4 °F - 37.4 °F 100% 29.98 in 10.0 mi Calm Calm - N/A   Clear
10:35 PM 35.6 °F - 35.6 °F 100% 29.99 in 10.0 mi Calm Calm - N/A   Clear
10:55 PM 35.6 °F - 35.6 °F 100% 30.00 in 10.0 mi Calm Calm - N/A   Clear
11:15 PM 35.6 °F - 35.6 °F 100% 30.00 in 10.0 mi Calm Calm - N/A   Clear
11:35 PM 33.8 °F - 33.8 °F 100% 30.00 in 10.0 mi Calm Calm - N/A   Clear
11:55 PM 33.8 °F - 33.8 °F 100% 30.00 in 10.0 mi Calm Calm - N/A   Clear